Theta_e
281 281 280 279 278 278 277 277 277 277 277 277 276 276 276 276 276 276 276 275 275 275 275 275 275 275 275 275 274 274 274 274 275 275 275 275 275 275 276 276 275 275 275 275 276 276 276 275 276 276 277 276 276 276 276 276 277 277 277 277 276 277 276 275 273 274 277 281 281 282 284 287 288 292 293 295 297 298 297 300 300 300 301 302 303
280 279 279 278 277 277 276 276 276 276 275 275 274 275 275 275 275 275 274 275 275 274 274 274 274 274 273 273 273 273 273 273 273 273 273 273 273 274 274 274 273 273 273 273 274 274 274 274 275 275 276 275 275 275 275 275 276 276 276 276 275 275 276 275 274 274 274 278 279 283 284 287 287 293 292 294 296 298 298 299 300 300 300 301 302
279 279 278 277 276 276 276 275 275 274 274 274 274 274 274 274 274 274 274 274 274 274 274 273 273 272 272 272 272 272 272 272 272 272 271 271 271 271 272 272 271 271 271 272 272 272 272 272 273 274 274 274 274 274 274 275 275 275 275 275 274 275 275 275 273 272 273 275 280 282 284 287 288 291 294 296 296 298 298 298 299 299 299 301 301
278 277 277 276 276 275 275 275 274 274 273 274 273 273 273 273 273 273 273 273 272 273 272 272 271 271 270 270 270 270 270 270 270 270 270 270 270 270 270 270 270 270 270 270 270 270 270 270 271 272 272 272 272 273 274 274 274 274 274 274 274 274 275 275 275 274 274 274 277 277 279 283 287 291 294 296 297 297 297 297 299 298 298 299 300
277 277 276 275 275 274 274 274 273 273 273 273 273 272 272 273 273 272 272 271 271 271 270 270 270 269 269 269 269 269 269 269 269 269 269 269 269 269 269 269 269 270 270 270 270 270 269 269 270 270 271 270 271 271 272 273 274 274 273 273 273 274 274 274 274 275 275 276 277 280 283 285 288 291 293 293 295 296 297 296 297 297 297 299 300
276 276 275 275 274 274 273 273 273 273 272 272 272 272 272 272 272 271 271 270 269 269 269 269 269 268 268 268 268 268 269 269 269 268 269 269 269 269 269 269 269 270 270 269 269 269 269 270 270 271 270 270 270 271 272 272 272 272 272 273 273 273 273 273 274 275 275 276 278 279 283 284 287 290 293 295 294 294 294 296 296 296 296 297 298
275 275 274 274 273 273 273 273 273 272 272 272 272 272 271 271 270 269 269 268 267 267 268 267 268 268 268 268 268 268 268 268 268 269 269 269 269 269 269 269 269 269 269 269 269 269 270 270 271 271 271 271 271 271 271 272 272 272 273 272 273 273 272 273 273 274 275 275 276 277 279 281 285 286 292 295 295 294 293 292 292 294 296 296 296
274 274 274 273 273 273 273 272 272 272 272 271 271 270 270 269 268 268 267 266 266 266 267 266 267 267 267 267 268 268 268 268 269 269 269 269 269 269 269 269 269 269 270 270 270 270 270 270 271 271 271 272 272 272 272 272 273 272 273 273 273 273 272 273 273 273 274 275 276 277 279 281 285 289 292 293 293 292 294 292 290 291 293 295 297
274 273 273 273 272 272 272 272 272 271 270 270 269 269 268 268 267 266 266 266 266 266 266 266 266 266 267 267 267 268 268 268 269 269 269 269 269 269 270 270 270 270 270 270 271 271 272 272 271 271 272 274 275 275 275 275 273 272 273 274 273 273 272 272 272 273 273 275 277 280 280 281 283 286 288 289 289 290 293 293 292 292 292 292 294
273 273 272 272 272 272 271 271 271 270 269 268 268 267 267 266 265 264 264 265 265 265 265 265 266 266 266 267 268 268 268 268 269 270 272 270 270 270 270 270 270 270 270 270 271 271 272 272 273 275 275 275 275 276 277 278 278 276 275 275 274 274 273 273 273 273 274 274 274 275 277 282 285 287 288 290 291 293 292 292 290 291 292 292 293
272 272 272 272 271 271 270 270 270 268 268 267 266 265 265 264 263 263 263 264 264 264 265 265 266 266 267 267 267 267 268 268 270 272 273 274 272 271 270 270 271 271 271 271 271 271 272 273 273 274 275 276 275 277 278 278 279 279 279 280 279 276 275 274 274 275 274 274 276 277 278 279 283 287 288 289 291 291 291 292 291 291 291 289 288
271 271 271 270 270 270 270 269 267 267 266 265 264 264 263 262 262 263 263 263 264 264 264 265 266 266 267 267 267 267 267 269 272 273 274 274 274 272 271 271 271 271 272 272 272 272 272 273 273 274 274 274 275 275 276 278 278 279 279 279 280 280 280 277 275 275 275 275 275 277 278 279 282 286 287 289 289 289 290 289 288 288 289 290 290
271 270 270 269 269 269 268 267 266 265 265 264 263 262 262 262 262 262 262 263 264 264 265 265 265 266 266 266 266 267 267 269 271 273 274 275 275 274 272 272 272 272 272 272 272 272 272 272 272 273 274 276 276 276 276 276 278 279 279 279 280 280 281 281 281 278 277 276 276 277 278 280 281 284 288 289 290 288 288 287 287 286 287 286 289
270 269 268 268 268 267 266 265 265 264 263 262 262 261 261 261 262 262 263 263 264 264 264 264 265 265 265 265 265 266 266 268 271 273 274 275 275 275 272 272 272 272 272 272 272 272 272 272 272 272 274 274 275 275 276 276 276 276 276 276 276 278 279 280 280 280 280 278 277 276 279 282 281 284 287 290 288 287 286 285 286 286 286 286 288
268 268 267 267 267 266 265 264 263 263 262 261 261 261 261 261 262 262 263 263 264 264 264 264 264 264 264 265 265 265 266 270 272 273 274 275 275 275 272 272 272 272 272 273 273 273 273 273 273 273 273 274 275 276 275 276 276 276 276 276 276 276 277 277 277 277 277 278 278 278 279 282 283 284 286 289 290 289 288 286 286 286 286 287 287
267 267 267 266 265 265 264 263 262 262 261 261 260 261 261 261 261 262 263 263 264 264 264 264 264 263 264 264 264 264 266 270 272 273 274 275 276 273 272 272 272 272 272 273 273 273 273 273 273 273 274 274 276 278 278 276 275 275 275 276 276 277 277 279 280 280 279 278 279 281 283 284 286 285 287 288 289 290 288 287 286 285 285 285 285
267 266 266 265 265 264 263 262 262 261 261 260 260 260 261 261 262 263 262 263 263 263 263 263 264 264 264 264 264 264 265 268 271 273 274 275 275 272 272 272 271 271 272 272 273 273 273 274 274 273 274 274 276 278 279 279 275 275 276 276 276 276 276 278 280 282 282 282 283 284 285 287 288 289 289 290 289 289 287 285 285 286 284 284 285
266 266 265 264 264 263 263 261 261 260 260 259 260 261 261 261 262 262 262 262 262 262 263 263 264 264 264 264 264 264 265 268 272 273 274 275 275 272 272 271 271 271 271 272 273 273 274 276 276 274 274 274 278 279 279 278 275 275 275 275 275 276 277 278 279 280 282 282 283 285 286 286 287 288 290 290 291 290 287 284 285 286 284 285 284
265 265 264 264 263 262 261 261 261 260 259 260 260 259 260 261 261 262 262 262 262 263 263 263 263 264 264 264 266 266 266 269 272 273 274 275 274 272 272 271 270 271 271 271 273 273 273 275 276 276 276 276 279 280 280 279 276 276 276 275 275 276 277 279 278 278 279 279 280 282 283 285 285 286 288 289 290 290 289 287 286 285 284 284 284
265 265 264 262 261 260 260 259 260 259 259 259 259 259 261 261 261 261 261 262 262 263 263 263 262 263 264 265 266 268 268 268 270 273 274 275 275 272 272 271 270 271 271 271 271 272 273 273 274 277 278 278 279 279 279 280 277 277 277 276 276 276 279 279 279 279 279 280 281 282 283 285 286 286 287 288 288 288 289 288 287 286 285 284 285
264 263 262 261 260 260 260 259 258 259 259 258 259 259 260 261 261 260 260 261 261 261 261 262 263 264 266 267 267 268 268 269 270 273 274 275 275 275 272 272 272 271 271 271 271 271 271 272 273 275 277 277 278 278 279 279 279 277 277 277 278 279 281 279 279 281 280 280 281 282 282 284 285 286 287 288 288 288 288 288 288 287 286 285 285
263 262 260 260 259 259 259 259 258 257 258 258 258 259 260 260 260 260 261 261 260 260 261 262 264 265 266 267 268 268 269 271 270 272 274 275 275 276 273 272 273 272 271 271 271 271 271 271 272 274 276 277 277 278 279 279 280 277 277 280 282 282 280 281 281 281 281 281 281 282 282 283 284 285 286 287 287 288 288 288 288 288 288 288 286
260 260 259 258 257 257 257 257 257 257 257 258 258 258 259 259 259 259 260 260 260 260 262 263 264 264 265 267 268 268 269 269 271 270 273 274 275 276 276 275 276 273 271 270 270 270 271 271 272 275 276 277 278 279 280 280 280 278 281 281 282 282 282 281 281 281 281 281 280 280 281 282 283 284 285 286 287 288 288 288 288 288 288 289 290
259 258 257 257 256 256 256 257 257 257 257 258 258 258 258 258 259 260 260 260 262 262 263 264 264 264 265 266 267 268 268 269 270 272 272 274 275 276 276 276 276 272 271 270 270 270 271 271 272 276 276 277 277 278 279 280 278 280 281 282 282 282 280 281 281 281 281 281 280 280 281 282 284 284 285 286 287 288 288 288 288 289 289 289 290
257 257 256 256 256 256 256 257 257 257 257 257 257 258 258 258 259 260 260 261 262 262 263 263 264 264 265 265 265 267 267 268 268 270 273 273 275 275 275 275 275 275 270 270 271 271 273 275 275 275 275 276 276 277 277 279 279 280 281 281 281 280 280 280 280 281 281 280 280 281 281 282 284 285 287 288 288 288 288 288 288 289 289 289 290
256 256 255 256 255 256 256 256 257 257 257 258 258 259 258 259 260 260 261 262 262 262 263 263 264 264 264 265 265 266 267 267 268 269 271 272 272 273 274 274 273 273 272 270 273 274 273 273 273 273 273 273 272 272 273 275 278 280 280 280 279 279 279 280 280 280 280 281 281 281 282 284 285 286 287 288 287 287 287 287 287 287 288 288 288
255 255 255 255 255 255 256 257 257 257 257 258 259 259 259 260 260 260 261 261 262 262 263 264 264 264 264 264 265 265 266 267 267 268 270 270 270 270 270 269 271 271 269 269 271 269 268 269 269 272 272 273 273 273 273 273 273 274 275 277 279 280 280 280 280 281 281 281 282 283 284 285 287 286 287 287 287 287 288 287 287 287 288 288 289
255 255 255 255 255 256 257 257 257 258 257 258 259 259 259 260 260 261 261 261 261 262 264 264 264 264 264 264 265 265 265 266 267 268 269 269 269 270 269 268 268 268 268 268 269 268 266 268 269 268 268 268 268 268 269 269 270 271 272 272 273 275 278 282 282 282 282 283 283 284 284 285 284 286 286 287 287 287 288 287 287 287 288 288 288
255 255 255 256 256 256 257 257 258 258 257 257 258 259 259 260 261 261 263 263 264 264 265 265 265 265 265 265 264 264 265 266 267 272 270 272 270 269 268 267 267 268 269 271 267 266 265 265 265 266 266 266 266 266 266 267 268 269 269 270 271 272 274 278 280 281 282 283 282 283 283 284 284 285 286 286 286 287 288 287 287 287 288 289 289
255 255 256 256 256 256 256 256 256 256 257 258 258 258 260 262 262 262 262 265 267 268 268 266 266 266 265 266 266 265 265 267 272 273 273 273 273 272 271 271 271 270 271 270 267 264 263 263 264 264 264 264 264 264 265 265 266 266 267 269 269 270 271 273 276 282 283 283 283 283 283 283 284 285 285 285 286 287 287 287 287 288 288 289 289
255 256 256 256 256 257 257 257 257 257 257 257 258 259 260 260 263 265 265 265 266 267 267 268 268 269 267 266 267 270 271 272 272 272 272 272 272 271 271 270 270 271 271 265 262 262 262 262 262 263 264 264 264 264 264 265 265 265 266 267 267 268 269 271 273 273 276 282 284 284 284 284 284 284 285 285 285 286 287 287 288 288 289 290 290
256 256 256 257 257 257 258 258 258 258 258 258 258 258 259 259 261 264 264 264 265 266 266 267 267 268 268 268 267 266 269 271 271 271 271 271 271 271 270 269 269 270 269 267 261 261 261 261 261 262 263 263 263 264 264 264 265 265 265 265 266 267 268 269 270 271 272 275 280 284 285 285 285 285 285 285 286 286 286 287 288 288 289 291 292
256 256 256 257 257 257 257 257 258 257 257 257 257 258 258 258 259 259 261 263 264 264 265 266 267 267 267 268 268 269 269 270 271 270 270 270 270 270 269 267 267 268 267 261 259 259 260 260 261 262 262 262 263 264 264 265 265 265 265 265 265 266 268 269 270 270 272 275 277 281 285 285 285 285 285 286 285 285 286 287 288 290 290 291 292
256 256 256 256 257 257 258 258 257 257 257 257 257 257 257 256 255 255 256 257 258 261 262 264 265 266 266 267 267 268 269 270 270 270 270 269 270 269 267 263 265 266 264 259 259 259 259 260 260 261 261 262 263 263 264 264 265 265 265 266 266 267 267 268 268 269 271 272 273 276 281 285 286 285 285 286 286 286 286 287 288 290 291 292 293
256 255 255 257 258 258 258 258 257 256 256 256 256 256 255 255 255 255 254 254 254 255 255 257 260 263 262 263 266 267 268 269 269 269 269 269 268 267 264 260 259 259 259 259 259 259 259 259 259 260 261 261 262 263 263 264 264 264 265 265 266 266 266 267 267 268 269 269 270 272 276 280 284 286 286 286 286 286 286 287 289 290 291 292 293
256 256 256 256 257 258 257 257 257 256 256 256 256 256 255 255 254 254 253 253 253 253 254 255 255 258 262 263 265 266 267 268 267 267 267 267 267 265 258 257 257 257 257 258 258 258 259 259 259 260 261 261 262 263 263 264 264 265 265 265 265 265 266 266 267 267 268 268 269 271 273 275 279 285 286 286 286 286 287 288 290 291 292 293 294
256 256 257 257 257 257 256 255 256 256 257 256 255 255 255 254 253 253 253 252 252 253 254 253 254 255 257 258 260 263 265 266 266 265 265 265 265 259 258 258 257 257 257 257 257 258 258 259 259 260 260 261 262 262 263 264 265 265 266 265 266 266 266 266 267 267 266 266 267 268 269 271 274 280 285 285 286 287 288 289 291 291 292 292 292
257 257 257 256 255 255 255 255 256 256 255 255 254 253 253 253 252 252 252 251 252 252 252 252 254 252 253 254 258 258 259 262 262 261 261 261 258 257 257 257 257 256 256 256 257 257 257 258 259 259 260 261 262 262 263 264 265 265 265 265 266 266 268 267 267 266 266 266 266 266 268 269 271 275 282 286 286 287 289 290 291 292 292 291 292
257 257 257 257 257 255 255 255 254 254 253 253 253 252 252 252 252 251 251 251 250 251 252 251 251 252 253 253 253 257 258 255 254 254 254 255 256 256 256 256 256 256 256 256 256 257 257 258 259 259 260 261 262 262 263 263 264 265 265 265 265 266 266 266 266 265 265 265 265 266 266 267 269 272 276 283 287 289 290 290 291 292 292 292 293
257 257 258 258 257 255 253 253 253 253 252 252 252 252 251 251 251 251 250 250 250 251 251 251 251 251 252 251 253 258 255 253 252 253 253 253 254 254 255 255 255 255 255 255 256 256 257 258 259 259 260 261 262 262 263 263 264 265 265 265 265 265 265 266 265 265 265 265 265 265 265 266 268 270 274 280 288 290 290 291 291 292 292 292 293
258 258 257 258 256 254 252 252 252 252 252 252 252 251 251 251 250 250 250 250 250 250 250 250 250 251 251 254 261 261 255 251 251 252 252 252 253 253 253 254 254 254 254 255 255 256 257 257 258 259 260 261 262 262 262 263 264 265 265 265 265 265 265 266 265 265 265 265 264 265 265 266 267 269 272 277 285 290 291 291 291 292 292 292 293
258 257 256 255 254 252 252 252 251 250 251 250 251 251 251 250 250 250 250 250 250 250 250 250 250 250 252 258 259 260 254 251 251 251 252 252 252 252 253 253 254 254 254 254 255 256 257 258 258 259 260 261 261 262 262 263 264 265 265 265 265 265 265 265 265 265 265 264 264 265 265 266 268 270 272 276 281 289 290 291 291 292 292 292 292
256 256 254 253 252 252 252 251 250 250 250 250 250 250 250 249 249 249 249 249 249 249 249 249 250 250 250 255 256 256 251 250 250 250 251 251 252 252 252 253 253 253 254 254 255 256 257 257 258 259 260 261 262 262 262 262 264 265 265 265 265 265 265 265 265 265 265 264 264 265 265 266 267 269 271 275 279 287 290 290 291 291 291 291 292
254 253 252 252 251 251 250 250 250 250 250 250 249 249 249 248 248 248 248 248 248 249 249 249 249 249 249 250 250 249 250 250 249 250 250 251 251 251 252 253 253 253 253 254 255 256 257 258 258 259 261 261 262 263 263 264 265 266 265 265 265 266 266 265 265 265 264 264 264 265 265 266 267 268 270 274 278 284 289 289 290 290 291 291 291
252 251 251 250 250 250 249 250 249 249 249 249 248 248 248 248 249 248 248 248 248 248 249 249 248 248 248 248 248 249 249 249 249 249 250 250 250 251 252 252 252 252 253 254 255 255 256 257 258 259 260 261 262 263 263 264 265 267 266 266 266 266 266 266 265 266 265 265 264 264 265 265 266 267 269 272 277 281 287 289 289 289 290 290 291
251 251 250 250 249 248 248 248 248 248 249 249 249 248 248 248 247 247 248 248 248 249 249 248 248 247 248 248 248 248 248 248 249 249 250 250 250 251 251 251 251 251 253 253 254 255 256 257 258 258 259 261 262 262 263 264 266 267 267 267 268 268 268 267 267 266 265 265 265 265 265 266 266 268 270 272 275 280 285 288 289 289 290 290 290
251 250 250 249 249 248 248 247 247 247 248 248 248 248 248 248 248 247 247 248 248 248 248 248 248 248 247 247 248 248 248 248 249 249 249 249 249 250 250 250 250 251 252 253 254 255 256 256 257 258 259 261 261 262 263 264 266 268 268 268 269 269 268 267 267 266 266 265 265 265 265 265 266 267 268 271 274 279 285 287 288 288 289 290 290
251 251 251 249 249 248 247 248 247 247 247 247 248 248 248 248 247 247 247 247 247 248 248 248 248 248 247 247 248 248 248 248 249 249 249 250 250 250 250 249 250 250 251 252 253 254 255 256 257 258 260 261 261 262 263 264 266 268 268 268 269 269 268 268 267 266 266 266 265 265 265 265 265 266 267 269 270 274 282 286 287 288 289 289 289
251 250 250 249 249 248 248 248 248 248 248 247 247 247 247 247 247 247 247 247 248 248 248 248 248 248 247 247 248 248 248 248 248 249 249 250 250 250 249 249 249 250 251 251 253 253 254 255 256 258 259 260 261 262 263 264 267 268 268 268 269 269 269 268 267 266 266 266 265 265 265 265 265 265 266 267 268 270 276 285 286 287 288 289 289
251 250 249 249 248 248 248 248 248 248 247 247 248 247 247 247 247 247 248 249 250 250 250 249 248 248 247 247 247 247 248 248 248 249 249 249 250 249 249 249 249 249 250 251 252 253 254 255 256 257 259 260 261 262 263 264 267 268 268 268 269 269 269 268 267 267 266 265 265 265 265 264 264 264 265 266 266 268 270 274 282 286 286 287 287
250 250 249 249 248 247 247 247 247 246 247 247 247 247 247 248 248 249 249 249 250 249 249 249 248 247 247 247 247 247 248 248 248 249 249 249 249 249 248 248 248 249 249 251 251 252 253 254 256 257 259 260 261 262 263 265 268 268 269 269 269 269 269 268 267 267 266 266 265 265 264 264 264 263 264 265 265 266 268 270 273 280 285 286 286
Wind_Speed
11 10 9 9 9 9 8 7 7 5 6 6 6 6 6 6 6 6 6 6 6 6 6 7 8 8 9 9 10 10 11 11 10 10 11 12 12 12 14 15 17 17 17 20 19 18 18 20 20 21 20 20 18 17 18 18 17 18 18 19 20 19 16 20 21 22 18 15 16 20 23 22 22 21 21 22 18 18 19 16 15 13 11 11 12
11 10 9 9 9 8 8 6 5 5 6 6 6 6 5 5 5 5 6 6 5 6 7 7 7 8 9 10 10 10 11 12 11 10 11 12 13 10 11 14 15 18 18 18 17 15 16 19 20 20 19 20 20 20 17 17 17 18 18 18 18 17 16 16 19 20 23 17 19 20 21 22 22 21 21 24 21 17 17 15 11 12 11 11 11
10 10 9 9 9 8 7 6 6 6 7 6 6 5 5 5 5 5 6 6 5 5 6 7 8 9 9 10 10 10 10 11 10 10 11 12 13 13 12 14 15 16 18 19 18 17 18 18 19 18 16 19 19 19 18 19 18 20 21 19 19 19 19 18 17 19 20 19 15 16 17 17 19 20 20 20 17 16 14 15 11 9 9 11 12
10 10 9 9 9 8 7 7 7 7 7 6 6 5 4 4 4 5 5 5 5 5 6 7 8 8 9 9 9 10 10 10 11 10 11 12 13 14 13 14 14 15 17 18 18 17 18 18 18 17 18 20 19 18 17 18 18 19 20 19 19 19 17 17 19 17 18 19 17 17 20 19 18 20 20 20 17 14 15 14 10 11 12 11 12
11 10 10 10 9 8 8 7 7 7 6 5 5 5 5 4 3 4 4 4 5 5 6 6 7 7 8 9 10 10 10 11 11 11 11 12 13 14 14 14 15 16 17 18 18 18 18 18 18 17 18 19 19 18 17 19 17 18 19 18 17 16 16 18 18 18 19 19 19 18 18 17 18 19 19 18 13 13 14 15 11 10 13 13 11
11 11 10 10 9 9 8 8 8 7 6 5 5 4 4 3 4 4 3 4 5 6 6 6 6 8 9 9 10 11 11 11 12 12 12 12 13 13 13 14 15 17 18 18 18 18 17 19 19 18 19 19 18 18 18 20 19 19 20 20 18 17 18 18 17 18 18 18 15 14 13 15 16 18 17 15 13 12 13 11 10 11 12 13 11
11 10 10 10 9 9 8 8 7 6 6 5 4 4 3 3 4 4 3 4 5 6 6 7 7 8 9 9 10 11 11 11 11 12 12 13 13 14 14 15 18 18 18 19 18 20 19 18 20 19 20 20 20 20 19 20 19 21 20 20 19 19 18 17 16 18 18 17 17 17 17 17 17 18 15 15 12 12 11 10 12 9 9 10 12
11 10 10 9 8 9 8 7 7 6 5 4 4 3 3 4 3 3 3 5 5 6 6 7 7 8 9 9 10 10 10 11 11 11 11 12 12 15 16 17 18 18 19 19 19 19 20 20 20 22 21 21 21 20 20 20 18 19 18 18 17 18 17 16 16 16 17 17 15 16 13 14 15 15 15 13 11 10 8 9 11 10 8 8 10
11 10 10 9 9 9 8 7 6 6 5 4 4 4 4 4 3 3 4 4 5 5 6 7 8 9 9 9 10 9 9 9 8 9 11 15 15 16 17 18 18 19 19 19 18 19 19 20 21 20 24 26 30 28 26 23 18 17 18 18 18 18 18 16 15 16 15 16 16 12 12 13 16 15 14 11 10 8 5 6 8 7 8 10 12
11 11 10 9 9 8 8 6 6 6 5 5 4 4 4 3 3 3 4 5 5 6 6 7 8 9 9 9 9 8 9 8 11 18 19 16 18 17 17 18 18 19 18 21 20 21 21 20 20 30 31 32 31 32 32 33 32 25 21 19 18 19 17 17 15 16 15 15 15 15 16 14 13 12 13 11 11 9 6 6 8 7 8 10 11
10 10 10 9 9 8 7 7 6 6 5 4 4 4 4 3 3 4 5 5 6 6 6 7 7 7 8 9 9 9 9 9 18 21 23 25 20 18 18 18 17 17 19 17 21 19 20 20 20 23 25 27 26 32 31 33 33 34 34 34 30 22 19 19 17 16 15 16 15 14 14 16 16 13 13 12 10 8 5 6 7 6 8 9 11
11 10 9 9 9 9 7 7 6 6 5 5 5 5 3 3 4 5 4 5 5 5 6 7 7 7 7 8 9 10 11 15 21 23 24 25 23 18 18 17 16 18 16 20 17 19 19 19 18 17 18 20 20 21 26 31 32 32 33 33 33 35 32 25 21 18 18 17 17 16 15 15 15 12 11 10 10 10 7 5 6 6 9 10 9
10 10 9 9 9 8 7 7 6 6 6 5 5 4 4 4 5 5 5 5 5 5 6 6 6 7 8 9 10 11 11 17 22 24 25 26 26 23 16 16 17 17 19 18 21 19 19 19 19 17 16 26 22 20 20 22 28 32 33 34 33 35 34 35 35 26 20 20 20 20 18 16 16 13 11 9 6 9 7 6 4 5 6 10 10
10 10 9 9 9 8 8 7 7 6 5 5 5 4 4 5 4 4 4 4 4 5 5 6 7 7 8 10 11 11 13 16 23 25 26 26 26 23 17 18 17 18 19 20 19 20 19 20 19 18 18 19 19 20 20 21 20 22 22 21 22 25 30 33 34 36 31 24 22 21 21 18 17 14 13 9 9 8 7 7 6 7 8 10 9
10 10 10 9 8 8 8 7 7 6 6 6 5 4 5 4 4 4 3 4 4 4 5 5 6 7 8 9 10 11 11 20 24 26 26 27 26 24 16 16 17 17 19 19 20 20 20 19 20 20 20 19 18 20 20 18 18 17 17 19 19 21 21 22 21 20 18 17 20 22 22 22 20 19 16 12 11 9 7 6 5 6 8 9 13
10 10 10 10 9 8 8 8 7 6 6 6 5 4 4 4 4 3 3 3 3 3 4 6 7 9 10 10 11 12 12 21 24 26 26 26 28 18 16 17 16 17 18 19 19 19 19 20 20 21 21 21 24 30 28 23 21 21 21 19 19 20 19 21 26 25 23 19 18 19 18 20 22 19 17 15 12 9 6 4 4 5 8 10 11
11 10 10 10 9 9 8 8 7 7 6 6 5 4 4 3 3 3 3 3 3 3 5 6 7 9 11 11 12 12 12 18 23 25 25 27 22 15 16 15 15 17 18 19 19 19 19 20 21 20 21 21 25 30 30 30 21 21 21 20 18 16 15 18 25 31 30 31 33 35 36 33 31 30 29 28 19 11 6 6 8 6 7 10 9
11 10 10 10 9 8 8 8 7 7 6 6 5 4 3 3 3 2 2 2 3 4 5 6 7 8 10 11 10 13 15 18 23 24 24 25 23 17 16 16 17 18 18 17 18 19 21 30 27 24 23 23 29 32 32 27 21 20 20 21 21 19 16 13 15 17 24 27 29 29 30 28 25 30 30 28 26 18 10 11 6 2 8 7 10
11 11 10 10 9 8 7 7 7 7 6 5 4 4 3 3 3 2 1 1 3 4 5 6 8 8 9 11 17 17 14 16 22 22 24 24 21 16 16 15 18 16 15 18 18 17 19 20 28 26 24 26 33 32 34 28 20 19 20 19 20 20 19 18 19 17 14 14 15 16 15 18 16 13 12 21 21 17 11 8 5 7 10 9 8
10 9 10 10 8 8 7 7 7 7 6 5 4 4 3 3 2 1 1 1 2 3 5 6 8 9 10 11 11 12 14 14 17 23 23 24 25 18 15 15 14 17 19 18 17 18 18 19 20 25 29 30 31 33 32 33 23 18 16 18 16 20 16 16 15 15 15 16 15 15 15 13 12 12 12 11 12 13 12 10 10 9 10 11 8
11 11 9 9 9 8 7 8 8 6 6 6 5 4 2 2 2 1 0 1 2 4 5 7 8 9 10 11 11 11 12 15 16 22 23 25 26 24 15 16 17 18 17 17 18 18 18 18 18 23 29 30 31 32 32 32 30 21 18 18 16 18 18 14 16 21 15 15 15 14 12 12 12 11 12 12 11 10 10 11 10 11 10 10 9
11 10 10 9 9 8 8 7 6 5 6 5 5 4 3 2 1 1 0 1 3 5 6 7 8 9 10 10 10 11 12 17 15 19 23 25 26 30 20 17 20 18 20 18 18 18 19 18 17 22 29 31 32 34 35 32 32 22 20 27 32 32 24 15 14 12 12 12 13 13 12 13 13 12 12 12 11 10 11 10 10 10 11 10 11
10 10 10 9 9 10 9 8 6 5 5 5 5 4 4 3 2 2 1 1 3 6 7 7 9 10 9 8 9 10 12 12 18 18 22 25 28 27 29 24 29 20 18 19 19 19 17 19 20 28 32 35 36 36 34 35 30 23 30 31 30 32 26 17 14 15 13 13 14 14 13 13 13 13 12 12 12 12 10 10 11 11 12 13 14
10 10 9 9 10 9 8 8 7 5 5 5 5 4 3 3 2 2 2 1 2 4 6 7 9 8 8 10 10 10 11 11 16 21 20 26 27 28 28 29 29 20 19 17 17 18 17 18 22 35 35 33 33 32 32 30 22 29 30 31 31 27 18 16 14 13 14 14 13 14 14 14 13 12 12 11 11 10 10 10 11 12 12 12 14
10 9 10 10 10 9 8 6 6 5 5 5 5 4 4 3 3 3 2 1 2 4 6 8 8 7 9 10 10 11 11 12 12 16 24 25 27 27 28 29 28 28 20 16 17 16 23 32 33 30 30 30 30 29 26 25 24 23 26 28 27 16 16 15 15 13 13 15 14 15 15 14 13 13 12 12 11 9 9 9 10 11 11 12 13
10 10 9 10 10 10 9 8 6 5 5 4 4 4 4 3 3 3 2 1 2 4 7 7 7 8 9 10 10 11 12 12 12 13 15 19 21 25 28 26 27 28 25 20 26 29 27 27 29 28 25 22 19 16 15 17 21 23 24 24 15 14 14 14 14 14 14 14 13 14 12 12 13 12 11 10 10 10 9 9 8 9 9 10 11
10 10 10 10 8 8 9 7 6 5 4 4 4 4 3 3 3 3 2 0 3 5 6 7 7 8 9 10 11 11 12 11 12 13 12 14 14 16 18 17 22 23 17 16 18 17 20 20 19 23 20 25 24 21 19 18 15 14 12 12 11 12 14 14 14 14 14 13 13 11 10 10 9 9 9 9 10 9 9 8 9 10 9 10 11
10 10 11 8 7 7 6 8 7 5 4 4 4 4 4 3 3 4 2 1 3 5 5 6 7 8 9 10 10 10 11 11 12 13 15 16 16 15 16 16 16 15 16 16 16 17 17 18 18 13 14 14 14 12 12 12 12 12 12 12 11 13 16 21 20 14 13 12 11 10 10 10 12 11 10 11 12 11 9 9 9 9 9 9 11
9 10 9 6 7 6 6 6 5 5 5 4 3 3 3 4 4 3 2 3 4 4 5 6 6 7 8 9 10 10 11 11 12 19 19 23 20 17 17 16 16 14 19 27 18 14 13 13 13 14 13 14 14 13 13 13 13 12 13 13 13 13 12 12 11 14 12 12 13 12 13 12 13 11 11 12 12 12 10 9 9 9 10 11 14
10 8 6 6 6 6 5 5 4 4 4 4 4 3 4 6 4 4 1 3 6 8 7 5 7 7 7 7 8 10 11 13 23 26 25 25 26 27 25 25 24 21 25 29 18 11 12 12 13 14 14 14 14 15 14 14 14 14 13 14 13 12 12 12 13 10 10 12 11 12 14 13 13 13 12 12 11 11 10 10 9 9 11 13 13
7 7 7 6 6 6 6 6 5 4 4 4 3 3 3 2 2 5 3 3 6 7 7 9 11 12 9 6 8 15 18 21 23 24 25 25 26 27 26 25 25 25 26 19 12 11 12 12 13 13 14 14 14 15 14 14 14 14 14 13 11 13 13 12 11 13 13 10 11 13 14 14 14 13 13 12 11 11 9 8 9 11 13 14 13
9 8 7 7 7 5 5 5 5 5 4 4 4 4 4 4 2 4 5 4 6 5 7 10 12 12 13 12 11 9 15 20 23 23 24 25 25 26 25 25 23 25 25 21 11 12 12 12 12 13 14 14 14 14 14 14 14 14 14 13 13 11 12 12 13 13 11 11 11 12 13 13 13 13 12 11 11 11 10 10 11 12 13 13 13
11 9 8 7 6 5 5 5 4 4 4 4 3 2 3 3 3 2 4 6 4 2 7 12 15 14 14 14 16 16 17 20 23 23 24 24 24 24 24 23 20 23 24 15 12 12 12 12 12 13 14 14 15 14 15 15 15 14 14 14 14 14 12 13 16 12 11 11 12 12 11 11 12 12 12 11 11 13 12 12 12 12 12 13 13
9 9 8 8 8 6 5 5 4 4 4 4 3 3 3 4 4 3 5 5 3 1 1 10 15 18 17 17 17 18 19 21 22 23 23 24 24 24 22 15 15 17 15 11 12 12 12 12 13 13 14 14 14 14 14 14 14 15 16 15 14 13 14 14 11 11 11 11 11 12 12 10 10 11 12 12 13 13 13 13 12 11 12 13 13
7 7 8 7 7 7 6 5 5 5 5 5 4 4 5 4 3 2 1 1 3 5 7 9 13 16 13 12 16 19 19 21 21 21 22 23 23 24 20 11 14 14 13 13 13 12 13 12 13 13 13 14 14 15 14 14 14 14 15 15 15 15 14 13 12 11 11 11 11 11 11 13 11 11 11 11 11 11 13 12 12 12 13 13 13
10 9 8 6 6 6 6 5 5 5 5 5 4 5 5 5 3 2 1 1 2 3 4 4 5 10 13 14 17 18 19 21 21 21 20 22 22 20 12 12 13 14 14 13 13 12 11 11 12 13 13 13 14 14 14 15 14 13 13 14 15 15 14 13 13 12 12 12 12 12 13 12 13 11 10 10 12 13 12 12 12 12 13 13 12
9 8 8 7 6 7 6 6 5 5 6 6 5 5 5 5 3 2 2 1 2 2 2 5 7 6 5 5 14 19 20 19 21 18 17 17 20 12 9 11 11 12 13 13 13 12 12 12 12 12 13 13 13 14 14 14 15 15 14 14 14 15 14 14 14 13 13 12 12 12 12 12 12 13 11 12 11 11 13 13 12 12 12 14 13
7 8 7 8 7 7 7 6 7 9 6 5 4 5 5 4 3 2 1 1 1 1 1 2 3 2 6 7 14 9 11 16 18 14 15 16 12 9 8 9 11 11 12 12 12 12 12 12 12 12 13 12 13 14 14 14 14 14 16 17 15 13 21 17 15 13 13 11 11 12 12 12 12 13 13 11 11 11 13 12 11 11 12 14 13
6 10 15 15 10 8 6 6 6 6 5 5 5 5 5 4 3 2 2 1 1 0 1 1 2 2 3 5 7 8 8 7 7 7 8 8 8 7 8 8 8 9 10 11 12 11 11 12 13 12 12 13 13 14 14 14 13 14 15 14 12 13 16 15 16 14 12 11 12 11 12 12 13 13 14 12 10 12 12 10 11 11 11 12 12
9 9 12 15 8 7 6 5 5 5 4 5 5 5 4 3 3 2 2 1 0 0 0 1 2 2 3 5 6 6 5 5 5 7 7 8 8 8 7 8 8 9 10 11 11 11 12 12 13 13 13 13 13 14 13 13 14 16 14 13 15 15 14 13 14 14 13 12 13 13 12 14 13 13 13 13 10 9 9 9 9 10 10 11 13
9 10 11 10 9 7 5 5 4 4 4 4 5 4 3 3 2 2 2 1 0 0 0 1 2 3 4 8 13 12 3 4 6 6 7 7 8 8 8 8 8 8 9 11 11 11 11 12 13 13 12 13 14 14 14 14 13 13 14 15 14 14 14 12 12 12 13 14 13 12 13 13 14 12 12 12 12 7 6 8 7 8 9 11 14
10 12 10 9 9 6 6 4 4 5 5 5 5 4 3 3 2 2 2 1 1 0 1 2 2 2 6 13 12 13 5 3 4 6 6 6 7 8 8 8 7 7 8 9 11 11 11 12 12 12 12 14 14 13 14 14 12 13 15 14 13 12 13 13 12 14 14 13 13 12 13 14 14 13 13 12 11 7 5 7 8 8 8 11 11
9 8 7 7 7 6 6 6 6 5 5 5 4 4 4 3 2 2 2 2 0 0 0 2 2 2 4 9 11 12 3 3 5 5 5 6 7 7 8 8 8 8 8 9 8 9 10 11 12 12 13 14 13 13 14 13 13 15 13 13 13 11 12 13 13 13 13 13 13 14 15 14 13 11 10 9 10 7 5 7 9 9 7 9 10
8 6 5 6 5 5 4 6 5 5 5 5 5 5 4 3 2 2 2 1 0 0 0 1 2 3 3 5 6 4 3 4 4 4 6 7 7 7 8 8 9 9 9 8 9 9 10 11 11 12 12 12 13 14 13 12 13 15 15 15 13 13 14 15 15 14 13 14 14 14 13 12 12 10 9 8 8 8 5 6 8 8 8 7 9
7 8 7 7 6 5 5 4 5 6 6 5 4 4 3 2 2 2 2 1 1 0 0 1 1 2 3 3 4 4 4 4 5 5 5 6 7 8 8 9 9 9 9 9 9 10 10 11 11 12 13 13 13 13 12 13 13 13 14 15 12 12 16 17 16 14 13 14 14 14 13 12 11 10 8 8 8 9 5 5 6 8 8 7 9
7 7 6 6 6 4 5 4 4 5 4 4 4 4 2 2 2 2 1 1 1 0 0 0 1 1 2 2 3 4 4 4 4 4 6 6 7 7 8 8 9 9 8 8 9 10 10 10 11 12 13 13 14 13 13 13 12 15 15 13 12 13 14 16 16 16 16 15 15 14 12 11 11 10 11 10 9 9 6 3 5 7 8 9 10
8 6 6 6 7 5 5 5 5 4 4 4 3 3 2 2 2 2 2 1 1 0 0 0 0 1 1 2 3 3 4 4 4 4 5 6 6 7 7 8 9 8 9 9 9 9 10 11 11 11 13 13 13 14 13 12 10 13 17 15 14 14 13 16 17 17 16 16 15 13 12 11 12 12 13 12 10 10 6 3 3 7 8 9 9
6 5 5 5 6 6 6 5 5 5 4 4 3 2 2 2 2 2 1 1 1 1 0 0 0 1 1 2 3 3 3 3 4 5 5 6 6 7 7 7 8 9 9 9 9 9 10 10 10 11 12 13 14 14 13 13 11 14 17 19 19 20 23 23 14 16 18 16 15 14 14 13 12 12 11 12 11 10 8 2 3 4 6 8 8
6 6 7 6 5 6 5 5 3 5 4 4 4 3 2 2 2 1 1 1 1 0 0 0 0 1 1 2 3 3 3 4 4 4 4 5 6 6 7 8 9 8 8 8 9 10 10 10 11 10 11 12 12 13 13 13 11 15 19 16 26 40 35 31 21 20 25 18 16 15 15 12 13 13 12 11 12 10 11 5 4 3 4 6 9
5 6 5 5 4 4 3 3 4 4 4 3 3 3 2 2 1 1 1 1 1 0 0 0 0 1 2 2 3 3 3 4 5 5 5 5 6 6 7 7 8 8 8 8 9 9 9 10 10 10 11 11 12 13 13 12 13 16 17 22 37 43 41 36 31 35 29 17 17 15 16 14 13 12 11 11 11 12 11 10 7 1 4 4 5
5 6 5 5 5 5 5 5 5 3 3 3 3 3 2 2 2 2 1 1 0 0 0 0 0 1 2 2 2 3 3 4 4 5 5 6 6 6 7 7 8 8 8 8 8 9 10 9 10 11 11 11 12 13 13 12 14 19 24 34 39 42 45 41 28 35 40 25 14 15 15 15 14 14 14 13 13 12 14 12 10 7 1 4 5
Wind_Direction
164 163 159 163 160 166 170 170 182 190 202 216 227 235 240 245 250 257 272 271 276 284 288 292 292 289 292 288 287 288 287 287 284 281 278 276 276 276 278 277 277 277 277 277 274 269 269 269 267 264 264 263 262 260 261 261 260 256 255 254 254 253 258 262 265 272 273 262 269 271 270 271 270 268 269 268 261 261 259 258 262 263 262 265 271
166 159 159 161 163 166 167 169 178 193 204 212 226 229 238 245 250 267 269 274 279 289 292 295 291 295 294 290 288 286 286 285 284 282 281 282 281 280 277 275 277 278 278 275 275 274 274 273 271 270 267 265 264 263 263 263 260 257 256 252 254 256 250 252 258 263 268 265 260 261 261 255 261 261 262 262 257 255 258 261 262 263 266 263 263
159 158 158 160 163 162 165 173 180 195 205 215 219 226 239 248 254 264 271 277 287 289 297 298 297 295 291 289 287 285 284 285 283 282 281 282 283 280 279 280 279 279 278 277 277 277 276 275 274 274 272 268 267 266 266 263 260 258 257 257 257 258 261 261 269 272 276 279 283 280 267 263 263 267 259 254 254 257 260 263 261 265 261 259 263
158 158 159 159 158 160 168 175 186 196 204 211 212 226 239 247 257 263 271 282 293 295 294 293 291 288 287 286 285 285 285 283 284 283 282 281 280 280 281 279 278 278 278 278 278 278 277 276 275 276 275 273 272 270 266 262 261 261 260 259 260 263 263 262 258 263 267 271 267 272 274 273 270 266 258 251 255 257 261 266 258 265 270 263 258
158 161 161 157 161 167 172 179 188 196 203 206 215 227 238 245 255 264 274 284 290 293 290 289 289 288 286 286 286 285 285 286 285 284 283 280 279 281 281 278 278 278 277 275 275 276 275 273 274 274 273 272 269 269 269 268 265 264 263 263 263 263 264 263 266 267 269 263 260 253 262 272 274 269 261 258 256 260 265 268 267 264 269 268 264
162 159 161 161 163 170 175 182 189 193 197 207 214 221 230 243 249 263 277 285 291 286 285 287 286 287 284 283 286 286 287 286 286 284 285 285 283 281 281 279 277 282 281 276 271 268 269 269 269 268 267 266 269 269 267 267 267 264 264 263 263 263 263 266 268 268 265 270 280 282 271 268 272 271 263 253 255 262 268 269 267 260 268 273 264
162 161 161 162 162 172 176 181 182 187 193 200 201 212 224 239 254 261 277 282 280 281 283 285 284 284 284 284 284 288 288 286 284 285 287 286 287 285 284 285 286 285 275 271 267 266 261 264 267 263 266 265 266 265 265 264 262 263 262 264 263 262 264 265 266 266 267 269 268 266 271 274 270 272 261 251 251 257 267 279 273 265 262 265 276
160 160 158 162 166 170 174 177 178 183 185 188 200 214 227 237 248 261 270 273 271 274 282 285 284 281 282 281 286 287 285 286 287 289 289 290 292 292 290 288 285 280 277 273 269 267 264 261 264 262 256 265 263 262 260 262 262 264 262 261 262 263 263 265 267 268 270 265 257 259 251 261 270 266 264 257 257 256 244 252 270 284 286 282 276
159 159 159 163 168 167 167 172 172 173 182 186 200 203 219 238 246 263 266 265 269 272 279 279 280 280 279 282 288 288 286 285 288 292 297 298 294 291 289 288 288 288 288 285 283 281 276 270 266 259 257 253 258 258 258 258 261 263 262 262 260 260 261 262 264 269 271 278 278 262 245 246 255 260 257 254 250 256 239 239 266 278 284 289 283
156 158 162 165 162 163 166 166 168 171 177 189 194 203 220 232 238 251 257 261 267 271 275 276 273 278 284 288 287 288 287 286 283 289 294 294 295 294 293 290 289 286 282 285 279 281 277 277 275 273 263 258 255 259 262 260 260 260 262 262 263 264 259 262 260 265 267 269 269 276 282 278 263 254 263 266 272 277 273 269 278 281 275 274 277
156 158 160 160 158 159 165 166 168 174 178 182 190 206 220 220 241 252 254 256 261 268 265 269 276 281 287 289 291 289 287 285 290 296 297 298 298 296 293 291 286 284 284 280 287 279 283 279 278 276 275 275 266 261 261 262 261 262 263 262 264 264 266 264 262 265 265 264 270 275 274 278 279 271 263 268 268 275 280 298 298 297 284 283 291
155 156 154 155 160 164 165 162 167 176 174 189 194 205 215 223 239 244 253 258 262 263 269 273 282 287 288 290 289 290 290 288 295 299 300 300 299 296 295 292 290 287 281 282 279 285 285 286 281 279 275 272 269 269 264 258 263 262 261 267 267 265 264 264 266 265 262 265 265 261 264 265 276 280 265 261 270 278 279 282 287 298 295 280 260
151 151 153 158 161 163 161 164 170 176 183 183 197 203 206 226 234 241 248 255 262 260 273 286 287 292 290 292 293 293 291 291 297 302 303 303 303 302 296 291 287 288 289 289 289 288 288 284 283 277 276 275 274 270 270 267 269 270 263 265 271 268 266 265 261 261 267 267 268 267 260 266 271 276 280 273 275 275 289 282 284 283 280 291 293
150 152 156 162 161 158 164 165 173 176 176 187 198 200 206 225 233 246 252 253 255 270 277 283 287 290 295 296 297 294 293 292 300 303 306 306 306 304 298 295 293 291 290 289 287 287 284 285 283 280 277 277 275 273 272 268 265 268 264 264 266 267 266 265 263 263 262 263 264 263 264 260 260 269 282 284 272 269 278 283 300 294 290 285 291
151 155 159 162 159 162 166 167 172 172 179 189 195 198 210 225 235 243 241 247 260 274 286 291 290 288 289 294 295 292 286 298 304 305 307 307 306 307 300 296 292 289 290 288 288 285 284 283 281 280 280 277 276 278 277 275 268 263 258 257 257 258 257 258 257 257 257 256 257 254 257 259 257 259 264 269 269 270 268 280 289 289 292 286 284
154 158 160 163 164 166 165 168 170 173 181 186 188 199 207 216 231 245 248 256 267 277 288 290 288 290 296 296 297 291 291 299 303 303 305 306 308 306 302 299 299 295 293 292 288 287 284 282 281 280 279 277 276 275 275 275 272 269 266 262 257 254 252 253 256 256 257 258 262 261 253 251 252 251 252 258 264 267 270 272 274 275 289 290 287
162 163 164 162 164 166 166 166 167 173 179 182 182 195 200 213 232 226 246 270 280 293 293 293 294 305 304 299 296 288 287 292 298 301 307 310 310 306 307 303 299 296 295 294 291 287 285 281 281 280 279 277 276 275 275 276 275 273 270 267 260 250 246 253 254 261 262 260 258 257 259 259 253 250 250 248 249 249 249 253 258 266 276 287 293
163 161 163 161 161 160 163 162 166 173 177 176 174 190 190 221 218 222 243 289 303 299 300 300 299 297 291 284 279 287 291 293 298 305 309 309 313 312 309 304 300 300 296 292 293 289 287 285 283 283 282 281 280 278 277 274 271 271 272 272 271 264 257 251 265 264 261 264 263 260 259 262 263 256 247 244 245 242 237 245 255 261 265 269 283
164 162 159 154 156 154 155 161 167 172 173 166 173 183 194 204 218 223 234 277 286 287 302 305 305 296 282 275 281 289 288 298 306 308 310 314 316 313 309 304 301 293 296 297 294 292 289 288 286 284 284 283 284 282 280 278 272 266 267 266 266 263 262 262 264 264 264 259 259 261 258 253 254 257 254 248 247 244 238 241 239 242 261 265 273
154 146 143 146 148 151 157 164 170 171 161 160 171 185 187 202 209 217 279 269 292 304 308 303 289 282 283 286 293 296 300 301 302 306 312 314 316 315 310 304 299 302 302 299 297 294 293 292 291 290 290 289 289 289 287 283 280 275 269 269 266 267 262 256 248 253 260 262 262 260 259 254 251 246 243 238 242 239 236 228 227 232 246 258 257
142 144 143 144 147 151 154 168 172 165 152 159 167 174 187 193 209 202 222 296 306 298 290 285 293 300 305 304 298 297 298 302 305 310 314 316 318 320 315 311 309 305 303 303 301 301 299 296 296 295 294 293 292 291 289 286 282 279 275 274 272 272 269 259 249 244 248 256 256 254 252 251 249 242 238 239 230 225 223 222 216 220 226 238 247
140 141 144 144 143 147 157 163 167 155 154 161 163 167 170 189 213 156 114 321 307 306 305 299 304 306 308 304 300 303 303 305 311 314 316 318 318 319 318 313 313 312 310 306 304 302 300 300 297 297 297 295 294 291 288 285 281 279 273 273 275 277 277 266 255 248 246 255 256 251 249 244 243 240 238 236 228 221 219 214 210 214 225 226 232
137 139 137 138 142 153 158 163 161 151 158 167 161 159 167 173 173 150 133 329 317 315 314 312 311 310 306 309 310 308 309 310 315 317 317 318 318 319 319 318 317 316 311 306 306 304 302 301 299 302 303 303 299 297 293 286 280 271 269 270 272 273 274 272 265 255 245 251 253 254 251 245 238 235 233 234 230 222 218 216 216 221 226 232 235
135 131 133 137 145 153 158 157 148 151 163 163 160 152 155 165 160 130 80 17 335 324 321 317 317 308 314 314 313 313 313 316 316 319 320 321 322 322 322 321 320 318 313 308 306 304 304 306 310 309 308 306 304 302 299 290 279 272 270 269 269 269 269 269 267 260 250 247 248 248 249 245 240 237 230 230 229 217 218 218 223 226 227 236 239
133 133 139 146 150 153 154 153 146 154 168 171 164 153 161 163 136 114 92 37 338 320 313 317 307 314 318 317 315 316 318 320 318 320 323 325 327 326 325 324 323 322 317 310 305 305 312 315 313 313 313 312 312 313 310 297 286 282 273 271 271 267 266 262 261 260 253 244 240 246 246 243 240 238 234 236 234 227 221 224 224 228 231 237 245
133 137 139 147 153 152 145 141 143 161 174 170 161 146 144 151 118 107 88 40 319 314 312 307 314 322 318 316 318 318 320 319 323 321 315 326 329 329 329 328 325 322 320 312 312 316 319 315 315 316 318 319 320 320 320 324 310 293 280 274 269 263 259 256 252 251 248 248 243 241 241 241 241 240 238 234 229 228 220 225 225 234 232 241 250
133 139 145 147 152 155 146 146 148 166 182 167 155 140 150 142 123 107 107 5 306 305 303 322 326 322 319 318 318 320 319 322 328 325 325 331 333 332 334 331 327 326 323 319 320 326 320 317 317 320 321 323 324 323 325 329 333 335 336 322 300 273 250 247 249 247 243 242 245 241 244 243 241 237 228 224 227 227 223 226 230 237 238 242 245
141 144 149 150 154 157 148 147 154 158 167 162 147 146 150 151 129 126 128 221 288 309 323 325 326 324 321 319 319 322 321 325 327 329 337 338 337 337 336 333 332 331 330 326 328 326 321 319 321 324 328 330 331 333 331 330 329 329 324 318 312 311 301 270 249 244 243 241 236 242 241 239 239 233 229 227 233 232 221 222 225 237 237 243 243
122 135 145 142 147 152 145 156 172 158 149 136 131 144 148 151 141 137 190 214 268 303 314 321 322 322 322 322 325 321 323 327 329 335 337 340 340 341 339 337 334 334 336 338 332 318 319 327 331 332 335 335 336 334 332 331 330 327 322 322 321 318 314 318 264 236 237 231 230 232 238 237 238 233 232 233 232 232 224 224 225 233 240 235 239
134 145 151 148 142 146 144 153 158 153 140 133 129 133 186 194 179 146 177 312 328 325 328 329 331 329 324 324 327 323 325 327 334 339 341 342 343 344 343 341 338 339 344 344 334 326 331 333 336 335 335 337 337 337 334 332 330 327 325 323 322 319 319 320 318 289 240 226 226 227 232 234 237 239 236 236 234 232 224 222 230 227 233 233 233
136 143 149 149 155 149 152 151 161 144 137 130 121 117 107 83 153 196 213 335 337 340 348 347 344 341 337 328 328 330 328 335 340 343 344 345 344 345 347 345 343 345 349 346 337 343 338 338 337 337 338 335 334 333 333 333 328 324 321 320 317 317 319 318 318 326 320 285 238 227 229 229 233 234 238 235 235 233 234 227 230 232 232 232 230
146 150 145 142 147 157 147 143 142 139 132 135 136 146 131 118 103 191 188 352 338 343 353 358 355 353 347 346 343 330 336 342 345 347 347 346 346 347 349 346 346 351 350 351 349 346 342 340 338 338 335 333 330 331 331 328 328 326 321 319 317 317 317 315 317 316 305 303 287 247 230 227 227 231 232 235 234 239 239 236 227 228 228 228 225
135 137 138 141 145 149 143 138 135 130 130 119 107 100 99 100 109 133 203 220 260 306 6 5 359 359 354 351 350 345 345 347 349 349 348 347 348 348 347 342 344 351 352 359 355 340 341 339 337 334 334 331 327 326 328 330 326 324 325 319 317 316 312 310 311 306 307 306 307 291 253 235 232 231 231 228 229 236 237 235 233 230 225 222 217
129 136 146 148 148 150 144 139 132 126 117 108 110 103 90 83 63 17 353 341 356 226 336 3 1 356 352 351 349 347 349 351 350 349 348 347 347 349 347 336 336 351 4 357 348 340 338 336 336 332 331 330 328 325 322 324 328 327 323 321 317 315 313 313 312 312 314 317 311 308 299 264 232 233 232 231 227 232 234 236 234 230 221 216 209
126 108 124 142 143 143 138 136 135 132 130 124 129 121 110 97 94 85 57 2 331 327 324 330 344 349 346 345 343 347 347 350 350 348 347 348 350 348 342 343 354 349 353 1 354 343 339 337 334 329 328 329 327 323 322 321 319 322 326 323 319 317 317 316 314 314 314 314 311 305 304 299 270 236 230 229 229 229 235 237 236 224 217 207 200
135 141 148 143 138 133 133 137 142 142 137 135 131 124 116 119 117 130 150 207 259 288 284 309 310 313 333 347 348 346 345 347 346 345 347 350 353 353 356 357 355 354 351 349 344 335 332 331 328 326 322 322 325 322 320 322 320 310 311 320 324 321 316 313 316 318 316 310 305 306 307 303 296 265 234 232 231 234 235 237 230 219 209 201 194
141 144 151 154 143 133 128 131 142 139 131 130 135 123 115 115 125 145 165 197 233 248 285 315 325 329 336 344 349 341 339 342 340 337 345 351 359 2 357 352 346 341 344 338 334 330 330 331 328 321 321 321 321 319 314 310 325 325 314 313 316 322 321 320 317 314 312 311 305 303 301 295 298 288 252 235 232 232 233 230 222 213 204 196 186
142 146 149 145 131 130 132 140 141 133 128 130 121 116 117 122 138 148 164 193 240 276 305 316 331 320 333 325 334 324 324 333 334 340 350 354 354 350 348 349 346 343 334 331 327 325 322 320 324 322 318 315 314 318 320 314 304 316 328 321 312 311 326 325 318 316 311 305 303 303 302 301 300 302 288 243 231 228 224 217 209 205 201 194 187
131 140 142 141 139 139 140 138 141 138 133 128 121 121 123 131 140 149 157 194 208 281 283 311 309 310 314 315 310 305 334 346 343 327 323 325 330 334 330 330 332 338 333 327 320 320 319 319 323 319 317 319 320 317 315 315 317 314 312 315 312 314 329 330 327 322 320 314 309 306 304 302 301 298 296 276 232 224 215 207 200 197 192 189 187
144 145 147 144 133 136 131 136 137 136 141 132 124 119 123 135 142 143 167 176 154 123 318 320 306 305 311 308 287 328 356 330 316 313 314 319 326 326 328 328 332 330 327 323 320 317 316 318 325 321 320 318 321 318 315 312 317 320 314 319 324 319 315 319 324 326 320 319 315 312 307 303 296 292 290 286 253 219 212 200 197 188 187 185 185
144 143 146 147 139 132 127 132 138 138 134 118 121 121 126 132 133 150 154 143 127 141 304 281 279 294 296 305 326 348 11 315 307 310 312 314 316 319 323 323 324 323 327 328 320 315 314 315 324 320 316 319 321 319 316 312 311 320 323 314 311 321 325 319 318 321 320 316 313 310 304 296 292 289 289 295 290 241 207 198 192 184 184 188 187
143 146 143 141 141 136 138 136 134 130 123 116 119 124 133 133 141 153 132 120 111 2 287 280 284 294 307 330 342 349 355 301 305 307 311 314 315 315 314 313 311 314 313 321 322 313 315 315 317 317 316 319 318 316 316 314 321 326 319 314 308 306 324 330 324 322 321 317 312 304 301 295 288 283 283 288 290 260 208 197 194 191 182 186 189
134 128 127 126 138 149 147 143 138 131 120 120 117 125 121 130 139 137 123 114 102 258 276 295 301 313 315 335 344 348 333 311 307 310 311 314 312 311 313 312 315 313 308 305 304 311 310 309 309 313 317 317 314 314 313 308 319 332 323 312 310 309 324 331 327 321 317 317 312 303 295 292 287 287 288 294 301 280 209 196 194 195 186 179 180
119 120 115 123 123 116 123 134 134 121 119 119 123 126 132 135 131 120 119 111 139 233 252 299 311 324 315 330 342 342 329 320 317 321 317 313 313 312 311 312 311 312 314 313 315 315 315 314 315 313 311 311 315 313 311 310 318 329 329 321 313 318 332 331 330 326 317 313 309 305 298 292 290 289 289 296 303 294 226 192 192 191 188 179 171
127 129 129 131 139 136 136 123 117 119 119 124 125 125 134 142 126 123 121 130 156 207 278 298 322 319 320 327 336 327 317 314 313 314 315 314 313 308 310 310 312 314 314 316 314 315 315 320 315 314 313 314 316 318 311 308 312 335 337 331 321 327 340 335 331 324 315 306 305 306 304 303 303 305 303 304 305 301 270 195 192 183 182 183 175
133 130 132 134 137 130 131 126 127 124 135 137 135 139 140 131 120 123 128 142 173 213 244 300 302 308 313 316 313 308 309 309 310 312 309 312 312 309 307 310 308 306 308 310 310 314 315 316 317 314 316 314 313 314 316 310 316 339 338 339 338 338 334 334 331 326 320 318 313 306 305 309 314 315 319 313 306 297 284 217 191 186 183 178 180
131 130 136 137 140 131 126 129 129 134 128 128 128 133 130 128 122 127 140 161 175 194 208 275 311 316 316 307 303 302 303 310 311 313 306 298 295 299 307 310 308 308 313 312 313 316 324 320 316 312 312 313 314 314 309 313 310 340 351 349 346 349 348 344 338 335 331 323 318 312 309 313 326 333 331 328 320 310 286 207 195 185 189 179 176
132 137 138 131 127 126 133 135 126 127 121 128 129 126 118 118 122 138 148 168 181 182 205 229 258 297 303 290 291 288 302 305 306 303 304 303 303 306 303 305 310 314 311 309 313 318 318 317 314 312 315 319 318 318 311 316 322 346 350 356 355 357 356 353 342 344 344 338 331 333 331 334 338 335 333 333 325 322 309 188 169 181 187 183 173
136 138 144 146 132 134 141 143 142 141 137 134 128 121 123 118 135 136 164 177 168 169 158 305 326 311 293 281 288 288 295 300 304 306 305 305 301 303 305 307 305 306 311 312 315 317 312 313 312 311 311 316 316 312 316 314 326 349 352 352 356 360 1 2 1 356 350 345 348 345 344 342 342 335 337 337 335 331 323 314 168 162 177 182 179
138 143 134 130 120 124 126 121 114 113 121 121 122 118 127 130 136 154 160 159 147 126 83 161 307 290 293 289 305 308 320 318 315 309 306 304 306 307 305 306 307 311 313 313 313 313 315 314 311 311 314 308 312 317 317 310 340 350 349 354 359 3 4 4 4 3 0 351 347 349 349 346 344 341 344 345 343 339 342 337 333 180 163 165 180
132 130 125 125 124 134 137 128 122 116 116 122 125 128 141 146 151 151 150 156 144 136 110 288 308 285 280 283 305 312 313 308 302 302 299 302 307 313 312 315 314 313 311 310 312 312 314 313 319 321 318 317 321 321 320 324 344 349 347 355 1 4 6 7 7 5 3 359 350 356 351 351 349 349 354 354 350 351 347 341 338 342 327 178 170